Location: ???????
(55.4231°N, 38.5570°E)
Time: 15:12:57
(UTC+00:00)

MSX - Pass Details

Date: 05 August 2024
Orbit: 894 x 905 km, 99.0° (Epoch: 18 September)

Event Time Altitude Azimuth Distance (km) Brightness Sun altitude
Rises 00:04:43 0° 15° (NNE) 3,545 8.4 -10.8°
Reaches altitude 10° 00:07:09 10° 13° (NNE) 2,600 7.4 -10.6°
Maximum altitude 00:12:52 64° 293° (WNW) 1,001 4.0 -10.1°
Enters shadow 00:18:12 12° 214° (SW) 2,447 5.4 -9.6°
